Location: Newark
(54.3386°S, 169.8415°W)
Time: 10:51:51
(UTC+00:00)

Transit 2A Rocket - Pass Details

Date: 24 October 2019
Orbit: 594 x 909 km, 66.7° (Epoch: 17 November)

Event Time Altitude Azimuth Distance (km) Brightness Sun altitude
Rises 13:31:13 0° 230° (SW) 3,564 8.5 -16.9°
Reaches altitude 10° 13:35:05 10° 253° (WSW) 2,622 7.5 -16.5°
Enters shadow 13:37:29 14° 276° (W) 2,355 7.1 -16.3°
Maximum altitude 13:38:00 14° 282° (WNW) 2,343 - -16.3°
Drops below altitude 10° 13:40:52 10° 310° (NW) 2,588 - -16.0°
Sets 13:44:39 0° 334° (NNW) 3,484 - -15.6°
